Time,TemperatureF,DewpointF,PressureIn,WindDirection,WindDirectionDegrees,WindSpeedMPH,WindSpeedGustMPH,Humidity,HourlyPrecipIn,Conditions,Clouds,dailyrainin,SoftwareType,DateUTC
2013-09-17 00:01:00,60.1,54.0,30.20,North,0,0.0,0.0,80,0.00,,,0.00,WUHU216HW,2013-09-17 04:01:00,
2013-09-17 00:02:00,60.1,54.0,30.20,North,0,0.0,0.0,80,0.00,,,0.00,WUHU216HW,2013-09-17 04:02:00,
2013-09-17 00:06:00,60.1,53.6,30.21,North,0,0.0,0.0,79,0.00,,,0.00,WUHU216HW,2013-09-17 04:06:00,
2013-09-17 00:11:00,59.9,53.8,30.20,North,0,0.0,0.0,80,0.00,,,0.00,WUHU216HW,2013-09-17 04:11:00,
2013-09-17 00:17:00,59.9,53.8,30.21,North,0,0.0,0.0,80,0.00,,,0.00,WUHU216HW,2013-09-17 04:17:00,
2013-09-17 00:22:00,59.9,53.8,30.21,North,0,0.0,0.0,80,0.00,,,0.00,WUHU216HW,2013-09-17 04:22:00,
2013-09-17 00:45:00,59.9,54.2,30.22,NE,45,0.0,0.0,81,0.00,,,0.00,WUHU216HW,2013-09-17 04:45:00,
2013-09-17 00:50:00,60.1,54.4,30.22,WSW,248,0.0,0.0,81,0.00,,,0.00,WUHU216HW,2013-09-17 04:50:00,
2013-09-17 00:55:00,60.3,54.2,30.22,North,0,0.0,0.0,80,0.00,,,0.00,WUHU216HW,2013-09-17 04:55:00,
2013-09-17 01:00:00,60.5,54.0,30.22,SW,225,0.2,1.1,79,0.00,,,0.00,WUHU216HW,2013-09-17 05:00:00,
2013-09-17 01:05:00,60.7,54.2,30.23,SW,225,0.0,1.1,79,0.00,,,0.00,WUHU216HW,2013-09-17 05:05:00,
2013-09-17 01:11:00,60.7,54.2,30.23,SSE,158,0.2,0.4,79,0.00,,,0.00,WUHU216HW,2013-09-17 05:11:00,
2013-09-17 01:16:00,60.7,53.8,30.23,SSW,203,0.0,2.7,78,0.00,,,0.00,WUHU216HW,2013-09-17 05:16:00,
2013-09-17 01:21:00,60.8,54.0,30.23,SSW,203,0.2,2.7,78,0.00,,,0.00,WUHU216HW,2013-09-17 05:21:00,
2013-09-17 01:26:00,61.2,54.0,30.23,SW,225,0.2,0.4,77,0.00,,,0.00,WUHU216HW,2013-09-17 05:26:00,
2013-09-17 01:31:00,61.6,53.9,30.23,South,180,0.4,1.1,76,0.00,,,0.00,WUHU216HW,2013-09-17 05:31:00,
2013-09-17 01:36:00,61.6,53.6,30.23,South,180,0.2,1.1,75,0.00,,,0.00,WUHU216HW,2013-09-17 05:36:00,
2013-09-17 01:41:00,61.6,53.6,30.24,SSW,203,0.2,1.1,75,0.00,,,0.00,WUHU216HW,2013-09-17 05:41:00,
2013-09-17 01:46:00,61.6,53.2,30.23,WSW,248,0.9,0.9,74,0.00,,,0.00,WUHU216HW,2013-09-17 05:46:00,
2013-09-17 01:51:00,61.6,53.2,30.23,SW,225,0.4,1.3,74,0.00,,,0.00,WUHU216HW,2013-09-17 05:51:00,
2013-09-17 01:56:00,61.6,53.2,30.23,South,180,0.4,1.3,74,0.00,,,0.00,WUHU216HW,2013-09-17 05:56:00,
2013-09-17 02:02:00,61.4,53.0,30.24,SSW,203,0.7,2.0,74,0.00,,,0.00,WUHU216HW,2013-09-17 06:02:00,
2013-09-17 02:07:00,61.2,52.9,30.23,SW,225,0.0,2.0,74,0.00,,,0.00,WUHU216HW,2013-09-17 06:07:00,
2013-09-17 02:12:00,61.0,52.8,30.24,South,180,1.1,2.5,74,0.00,,,0.00,WUHU216HW,2013-09-17 06:12:00,
2013-09-17 02:17:00,61.0,52.8,30.24,South,180,1.1,2.5,74,0.00,,,0.00,WUHU216HW,2013-09-17 06:17:00,
2013-09-17 02:42:00,60.5,52.2,30.25,ESE,113,0.4,0.4,74,0.00,,,0.00,WUHU216HW,2013-09-17 06:42:00,
2013-09-17 02:47:00,60.3,52.4,30.25,SSW,203,0.2,0.9,75,0.00,,,0.00,WUHU216HW,2013-09-17 06:47:00,
2013-09-17 02:52:00,60.1,52.2,30.25,SSW,203,1.6,1.6,75,0.00,,,0.00,WUHU216HW,2013-09-17 06:52:00,
2013-09-17 02:57:00,60.1,51.8,30.24,SW,225,2.5,2.5,74,0.00,,,0.00,WUHU216HW,2013-09-17 06:57:00,
2013-09-17 03:02:00,60.1,51.8,30.24,South,180,1.1,2.9,74,0.00,,,0.00,WUHU216HW,2013-09-17 07:02:00,
2013-09-17 03:08:00,60.1,51.8,30.25,NNW,338,0.4,2.9,74,0.00,,,0.00,WUHU216HW,2013-09-17 07:08:00,
2013-09-17 03:13:00,60.1,51.8,30.25,SSW,203,0.4,0.7,74,0.00,,,0.00,WUHU216HW,2013-09-17 07:13:00,
2013-09-17 03:18:00,59.8,51.5,30.25,ENE,68,0.0,1.1,74,0.00,,,0.00,WUHU216HW,2013-09-17 07:18:00,
2013-09-17 03:23:00,59.6,51.3,30.25,NE,45,0.0,1.1,74,0.00,,,0.00,WUHU216HW,2013-09-17 07:23:00,
2013-09-17 03:28:00,59.6,51.3,30.25,SE,135,0.4,1.1,74,0.00,,,0.00,WUHU216HW,2013-09-17 07:28:00,
2013-09-17 03:33:00,59.4,51.1,30.25,ENE,68,0.0,1.1,74,0.00,,,0.00,WUHU216HW,2013-09-17 07:33:00,
2013-09-17 03:38:00,59.2,51.3,30.25,SSE,158,0.4,0.4,75,0.00,,,0.00,WUHU216HW,2013-09-17 07:38:00,
2013-09-17 03:43:00,59.0,51.1,30.26,West,270,0.0,0.4,75,0.00,,,0.00,WUHU216HW,2013-09-17 07:43:00,
2013-09-17 03:48:00,58.9,50.9,30.26,ESE,113,1.1,1.1,75,0.00,,,0.00,WUHU216HW,2013-09-17 07:48:00,
2013-09-17 03:54:00,58.7,51.1,30.26,SE,135,0.0,1.8,76,0.00,,,0.00,WUHU216HW,2013-09-17 07:54:00,
2013-09-17 03:59:00,58.5,50.9,30.26,ESE,113,0.4,1.8,76,0.00,,,0.00,WUHU216HW,2013-09-17 07:59:00,
2013-09-17 04:04:00,58.5,50.9,30.27,South,180,0.0,2.0,76,0.00,,,0.00,WUHU216HW,2013-09-17 08:04:00,
2013-09-17 04:09:00,58.3,50.8,30.27,SSE,158,0.9,2.0,76,0.00,,,0.00,WUHU216HW,2013-09-17 08:09:00,
2013-09-17 04:14:00,58.1,50.2,30.27,SSW,203,0.9,0.9,75,0.00,,,0.00,WUHU216HW,2013-09-17 08:14:00,
2013-09-17 04:19:00,58.0,50.0,30.27,SSE,158,0.7,1.3,75,0.00,,,0.00,WUHU216HW,2013-09-17 08:19:00,
2013-09-17 04:24:00,58.0,50.0,30.27,North,0,0.2,1.3,75,0.00,,,0.00,WUHU216HW,2013-09-17 08:24:00,
2013-09-17 04:29:00,57.8,49.9,30.28,SE,135,1.3,1.3,75,0.00,,,0.00,WUHU216HW,2013-09-17 08:29:00,
2013-09-17 04:34:00,57.6,49.7,30.28,SW,225,0.7,1.6,75,0.00,,,0.00,WUHU216HW,2013-09-17 08:34:00,
2013-09-17 04:39:00,57.4,49.5,30.28,SW,225,0.0,1.6,75,0.00,,,0.00,WUHU216HW,2013-09-17 08:39:00,
2013-09-17 04:44:00,57.2,49.7,30.28,SSW,203,0.9,1.1,76,0.00,,,0.00,WUHU216HW,2013-09-17 08:44:00,
2013-09-17 04:50:00,57.2,49.7,30.28,SSE,158,0.0,1.1,76,0.00,,,0.00,WUHU216HW,2013-09-17 08:50:00,
2013-09-17 04:55:00,57.1,49.5,30.28,SSW,203,2.0,2.0,76,0.00,,,0.00,WUHU216HW,2013-09-17 08:55:00,
2013-09-17 05:00:00,56.9,49.3,30.29,SSE,158,0.0,2.0,76,0.00,,,0.00,WUHU216HW,2013-09-17 09:00:00,
2013-09-17 05:05:00,56.7,49.1,30.29,SSE,158,2.5,2.5,76,0.00,,,0.00,WUHU216HW,2013-09-17 09:05:00,
2013-09-17 05:10:00,56.5,49.0,30.29,SE,135,0.9,2.5,76,0.00,,,0.00,WUHU216HW,2013-09-17 09:10:00,
2013-09-17 05:15:00,56.5,49.0,30.29,SW,225,1.1,2.5,76,0.00,,,0.00,WUHU216HW,2013-09-17 09:15:00,
2013-09-17 05:20:00,56.5,49.0,30.29,ESE,113,0.2,1.6,76,0.00,,,0.00,WUHU216HW,2013-09-17 09:20:00,
2013-09-17 05:25:00,56.3,48.8,30.30,South,180,0.7,1.6,76,0.00,,,0.00,WUHU216HW,2013-09-17 09:25:00,
2013-09-17 05:30:00,56.2,48.6,30.30,North,0,1.8,1.8,76,0.00,,,0.00,WUHU216HW,2013-09-17 09:30:00,
2013-09-17 05:35:00,56.2,48.6,30.30,SW,225,0.9,1.8,76,0.00,,,0.00,WUHU216HW,2013-09-17 09:35:00,
2013-09-17 05:40:00,56.0,48.5,30.30,SSW,203,1.1,1.8,76,0.00,,,0.00,WUHU216HW,2013-09-17 09:40:00,
2013-09-17 05:45:00,55.8,48.3,30.30,SSW,203,0.2,1.8,76,0.00,,,0.00,WUHU216HW,2013-09-17 09:45:00,
2013-09-17 05:51:00,55.6,47.8,30.30,SSW,203,1.6,1.8,75,0.00,,,0.00,WUHU216HW,2013-09-17 09:51:00,
2013-09-17 05:56:00,55.4,47.3,30.31,SW,225,1.1,1.6,74,0.00,,,0.00,WUHU216HW,2013-09-17 09:56:00,
2013-09-17 06:01:00,55.1,47.3,30.31,ESE,113,0.2,1.6,75,0.00,,,0.00,WUHU216HW,2013-09-17 10:01:00,
2013-09-17 06:06:00,55.1,47.3,30.31,SW,225,0.4,1.1,75,0.00,,,0.00,WUHU216HW,2013-09-17 10:06:00,
2013-09-17 06:11:00,54.7,46.6,30.32,SSE,158,2.7,2.7,74,0.00,,,0.00,WUHU216HW,2013-09-17 10:11:00,
2013-09-17 06:16:00,54.7,46.6,30.32,South,180,0.7,2.7,74,0.00,,,0.00,WUHU216HW,2013-09-17 10:16:00,
2013-09-17 06:21:00,54.5,46.5,30.32,SE,135,0.4,2.7,74,0.00,,,0.00,WUHU216HW,2013-09-17 10:21:00,
2013-09-17 06:26:00,54.4,46.3,30.32,SE,135,1.6,1.6,74,0.00,,,0.00,WUHU216HW,2013-09-17 10:26:00,
2013-09-17 06:31:00,54.4,45.9,30.33,SSW,203,0.7,1.6,73,0.00,,,0.00,WUHU216HW,2013-09-17 10:31:00,
2013-09-17 06:36:00,54.2,46.1,30.33,SSW,203,0.9,2.0,74,0.00,,,0.00,WUHU216HW,2013-09-17 10:36:00,
2013-09-17 06:41:00,54.0,45.9,30.33,SSW,203,1.3,2.0,74,0.00,,,0.00,WUHU216HW,2013-09-17 10:41:00,
2013-09-17 06:47:00,53.8,45.7,30.33,SSW,203,0.2,1.3,74,0.00,,,0.00,WUHU216HW,2013-09-17 10:47:00,
2013-09-17 06:52:00,53.6,45.9,30.33,SW,225,0.7,2.0,75,0.00,,,0.00,WUHU216HW,2013-09-17 10:52:00,
2013-09-17 06:57:00,53.3,45.5,30.33,SSW,203,0.4,2.0,75,0.00,,,0.00,WUHU216HW,2013-09-17 10:57:00,
2013-09-17 07:02:00,53.1,45.4,30.34,SE,135,1.6,1.6,75,0.00,,,0.00,WUHU216HW,2013-09-17 11:02:00,
2013-09-17 07:07:00,53.1,45.4,30.34,SSE,158,0.7,1.6,75,0.00,,,0.00,WUHU216HW,2013-09-17 11:07:00,
2013-09-17 07:12:00,52.9,45.2,30.34,South,180,0.4,1.6,75,0.00,,,0.00,WUHU216HW,2013-09-17 11:12:00,
2013-09-17 07:17:00,52.9,44.8,30.35,South,180,0.9,0.9,74,0.00,,,0.00,WUHU216HW,2013-09-17 11:17:00,
2013-09-17 07:22:00,52.9,44.2,30.35,SSE,158,1.8,1.8,72,0.00,,,0.00,WUHU216HW,2013-09-17 11:22:00,
2013-09-17 07:27:00,52.9,44.2,30.36,SSE,158,1.1,1.8,72,0.00,,,0.00,WUHU216HW,2013-09-17 11:27:00,
2013-09-17 07:32:00,52.7,44.4,30.36,SE,135,0.0,1.8,73,0.00,,,0.00,WUHU216HW,2013-09-17 11:32:00,
2013-09-17 07:37:00,52.7,44.4,30.36,SSW,203,1.6,1.6,73,0.00,,,0.00,WUHU216HW,2013-09-17 11:37:00,
2013-09-17 07:42:00,52.6,43.8,30.36,South,180,0.9,2.0,72,0.00,,,0.00,WUHU216HW,2013-09-17 11:42:00,
2013-09-17 07:48:00,52.6,43.8,30.37,WSW,248,0.4,2.0,72,0.00,,,0.00,WUHU216HW,2013-09-17 11:48:00,
2013-09-17 07:53:00,52.6,43.8,30.37,SSW,203,0.2,1.1,72,0.00,,,0.00,WUHU216HW,2013-09-17 11:53:00,
2013-09-17 07:58:00,52.6,43.8,30.37,SSW,203,1.3,1.3,72,0.00,,,0.00,WUHU216HW,2013-09-17 11:58:00,
2013-09-17 08:03:00,52.6,43.8,30.37,SSW,203,1.3,1.3,72,0.00,,,0.00,WUHU216HW,2013-09-17 12:03:00,
2013-09-17 08:08:00,52.9,43.8,30.37,SE,135,0.7,3.1,71,0.00,,,0.00,WUHU216HW,2013-09-17 12:08:00,
2013-09-17 08:13:00,53.3,44.5,30.37,SSW,203,1.8,3.1,72,0.00,,,0.00,WUHU216HW,2013-09-17 12:13:00,
2013-09-17 08:18:00,53.6,44.5,30.38,SSE,158,0.9,1.8,71,0.00,,,0.00,WUHU216HW,2013-09-17 12:18:00,
2013-09-17 08:23:00,54.2,45.0,30.38,SSE,158,0.4,1.8,71,0.00,,,0.00,WUHU216HW,2013-09-17 12:23:00,
2013-09-17 08:28:00,54.2,44.6,30.38,SSE,158,0.2,1.1,70,0.00,,,0.00,WUHU216HW,2013-09-17 12:28:00,
2013-09-17 08:33:00,54.9,44.9,30.38,SSW,203,1.6,2.0,69,0.00,,,0.00,WUHU216HW,2013-09-17 12:33:00,
2013-09-17 08:38:00,55.1,44.7,30.38,South,180,1.1,2.0,68,0.00,,,0.00,WUHU216HW,2013-09-17 12:38:00,
2013-09-17 08:44:00,54.7,43.9,30.38,SE,135,0.9,1.3,67,0.00,,,0.00,WUHU216HW,2013-09-17 12:44:00,
2013-09-17 08:49:00,54.4,44.0,30.38,SSE,158,0.0,1.6,68,0.00,,,0.00,WUHU216HW,2013-09-17 12:49:00,
2013-09-17 08:54:00,54.9,44.9,30.38,South,180,0.7,2.2,69,0.00,,,0.00,WUHU216HW,2013-09-17 12:54:00,
2013-09-17 08:59:00,55.8,45.4,30.38,SSE,158,1.8,2.2,68,0.00,,,0.00,WUHU216HW,2013-09-17 12:59:00,
2013-09-17 09:04:00,56.9,46.0,30.39,SSE,158,1.1,1.8,67,0.00,,,0.00,WUHU216HW,2013-09-17 13:04:00,
2013-09-17 09:09:00,57.4,45.7,30.39,WNW,293,0.9,1.8,65,0.00,,,0.00,WUHU216HW,2013-09-17 13:09:00,
2013-09-17 09:14:00,57.8,46.1,30.39,South,180,1.8,2.2,65,0.00,,,0.00,WUHU216HW,2013-09-17 13:14:00,
2013-09-17 09:19:00,58.0,46.3,30.39,SSW,203,1.6,2.2,65,0.00,,,0.00,WUHU216HW,2013-09-17 13:19:00,
2013-09-17 09:24:00,58.3,46.2,30.39,SSW,203,1.8,1.8,64,0.00,,,0.00,WUHU216HW,2013-09-17 13:24:00,
2013-09-17 09:30:00,58.7,46.5,30.39,NNW,338,0.7,2.2,64,0.00,,,0.00,WUHU216HW,2013-09-17 13:30:00,
2013-09-17 09:35:00,59.2,47.0,30.40,ESE,113,1.3,2.2,64,0.00,,,0.00,WUHU216HW,2013-09-17 13:35:00,
2013-09-17 09:40:00,59.0,46.0,30.40,WSW,248,2.7,2.7,62,0.00,,,0.00,WUHU216HW,2013-09-17 13:40:00,
2013-09-17 09:45:00,59.0,46.0,30.40,NE,45,0.7,2.7,62,0.00,,,0.00,WUHU216HW,2013-09-17 13:45:00,
2013-09-17 09:50:00,59.2,46.6,30.40,ESE,113,1.1,2.7,63,0.00,,,0.00,WUHU216HW,2013-09-17 13:50:00,
2013-09-17 09:55:00,59.4,46.8,30.40,South,180,0.4,1.8,63,0.00,,,0.00,WUHU216HW,2013-09-17 13:55:00,
2013-09-17 10:00:00,59.6,46.5,30.40,ESE,113,1.8,2.2,62,0.00,,,0.00,WUHU216HW,2013-09-17 14:00:00,
2013-09-17 10:05:00,59.8,47.2,30.40,SE,135,1.1,2.2,63,0.00,,,0.00,WUHU216HW,2013-09-17 14:05:00,
2013-09-17 10:10:00,59.8,46.7,30.40,WSW,248,1.3,1.8,62,0.00,,,0.00,WUHU216HW,2013-09-17 14:10:00,
2013-09-17 10:15:00,59.6,46.5,30.40,South,180,0.4,1.3,62,0.00,,,0.00,WUHU216HW,2013-09-17 14:15:00,
2013-09-17 10:20:00,59.9,46.9,30.40,WSW,248,0.4,1.8,62,0.00,,,0.00,WUHU216HW,2013-09-17 14:20:00,
2013-09-17 10:26:00,60.1,47.5,30.40,SSW,203,0.9,1.8,63,0.00,,,0.00,WUHU216HW,2013-09-17 14:26:00,
2013-09-17 10:31:00,60.3,47.7,30.40,SSE,158,0.4,1.8,63,0.00,,,0.00,WUHU216HW,2013-09-17 14:31:00,
2013-09-17 10:36:00,60.5,47.9,30.40,SE,135,0.0,1.8,63,0.00,,,0.00,WUHU216HW,2013-09-17 14:36:00,
2013-09-17 10:41:00,60.7,47.6,30.40,SSW,203,2.0,2.0,62,0.00,,,0.00,WUHU216HW,2013-09-17 14:41:00,
2013-09-17 10:46:00,60.5,47.1,30.40,South,180,1.6,2.0,61,0.00,,,0.00,WUHU216HW,2013-09-17 14:46:00,
2013-09-17 10:51:00,60.5,47.4,30.41,SSW,203,1.1,1.8,62,0.00,,,0.00,WUHU216HW,2013-09-17 14:51:00,
2013-09-17 10:56:00,61.2,47.7,30.41,ENE,68,0.2,3.1,61,0.00,,,0.00,WUHU216HW,2013-09-17 14:56:00,
2013-09-17 11:01:00,61.6,48.1,30.41,ESE,113,1.1,3.1,61,0.00,,,0.00,WUHU216HW,2013-09-17 15:01:00,
2013-09-17 11:06:00,61.2,47.4,30.40,NE,45,1.3,3.1,60,0.00,,,0.00,WUHU216HW,2013-09-17 15:06:00,
2013-09-17 11:11:00,60.8,47.0,30.40,ENE,68,0.4,3.1,60,0.00,,,0.00,WUHU216HW,2013-09-17 15:11:00,
2013-09-17 11:16:00,61.2,47.4,30.40,SE,135,0.9,2.7,60,0.00,,,0.00,WUHU216HW,2013-09-17 15:16:00,
2013-09-17 11:21:00,61.2,46.8,30.40,ENE,68,0.9,2.7,59,0.00,,,0.00,WUHU216HW,2013-09-17 15:21:00,
2013-09-17 11:27:00,61.7,48.3,30.41,SSW,203,1.3,2.2,61,0.00,,,0.00,WUHU216HW,2013-09-17 15:27:00,
2013-09-17 11:32:00,62.1,48.5,30.40,South,180,1.1,1.3,61,0.00,,,0.00,WUHU216HW,2013-09-17 15:32:00,
2013-09-17 11:37:00,62.6,47.6,30.41,SSE,158,1.1,2.7,58,0.00,,,0.00,WUHU216HW,2013-09-17 15:37:00,
2013-09-17 11:42:00,62.6,47.6,30.40,SW,225,3.4,3.4,58,0.00,,,0.00,WUHU216HW,2013-09-17 15:42:00,
2013-09-17 11:47:00,62.6,46.6,30.40,SW,225,1.6,3.4,56,0.00,,,0.00,WUHU216HW,2013-09-17 15:47:00,
2013-09-17 11:52:00,62.8,46.8,30.40,West,270,3.6,3.6,56,0.00,,,0.00,WUHU216HW,2013-09-17 15:52:00,
2013-09-17 11:57:00,63.2,47.2,30.40,NE,45,0.4,3.6,56,0.00,,,0.00,WUHU216HW,2013-09-17 15:57:00,
2013-09-17 12:02:00,62.6,47.2,30.40,SE,135,0.9,1.6,57,0.00,,,0.00,WUHU216HW,2013-09-17 16:02:00,
2013-09-17 12:07:00,63.0,47.4,30.40,ESE,113,0.7,1.1,57,0.00,,,0.00,WUHU216HW,2013-09-17 16:07:00,
2013-09-17 12:12:00,63.4,46.8,30.40,NE,45,1.1,1.6,55,0.00,,,0.00,WUHU216HW,2013-09-17 16:12:00,
2013-09-17 12:17:00,63.4,46.4,30.39,South,180,1.3,2.5,54,0.00,,,0.00,WUHU216HW,2013-09-17 16:17:00,
2013-09-17 12:23:00,63.4,46.4,30.39,WSW,248,1.1,2.5,54,0.00,,,0.00,WUHU216HW,2013-09-17 16:23:00,
2013-09-17 12:28:00,63.7,46.6,30.39,SE,135,0.0,1.8,54,0.00,,,0.00,WUHU216HW,2013-09-17 16:28:00,
2013-09-17 12:33:00,63.9,45.8,30.39,North,0,4.3,4.3,52,0.00,,,0.00,WUHU216HW,2013-09-17 16:33:00,
2013-09-17 12:38:00,63.9,45.8,30.39,SSW,203,0.7,4.3,52,0.00,,,0.00,WUHU216HW,2013-09-17 16:38:00,
2013-09-17 12:43:00,64.1,46.5,30.39,ESE,113,1.3,2.7,53,0.00,,,0.00,WUHU216HW,2013-09-17 16:43:00,
2013-09-17 12:48:00,64.3,45.2,30.39,WSW,248,0.9,2.0,50,0.00,,,0.00,WUHU216HW,2013-09-17 16:48:00,
2013-09-17 12:53:00,64.4,45.8,30.38,SSW,203,0.9,2.0,51,0.00,,,0.00,WUHU216HW,2013-09-17 16:53:00,
2013-09-17 12:58:00,65.2,46.5,30.38,SW,225,1.1,1.3,51,0.00,,,0.00,WUHU216HW,2013-09-17 16:58:00,
2013-09-17 13:03:00,65.2,45.6,30.38,ESE,113,1.6,1.8,49,0.00,,,0.00,WUHU216HW,2013-09-17 17:03:00,
2013-09-17 13:08:00,65.0,45.4,30.38,SE,135,0.7,1.8,49,0.00,,,0.00,WUHU216HW,2013-09-17 17:08:00,
2013-09-17 13:13:00,65.2,45.6,30.38,NW,315,0.7,3.6,49,0.00,,,0.00,WUHU216HW,2013-09-17 17:13:00,
2013-09-17 13:19:00,65.3,45.7,30.38,NE,45,1.6,3.6,49,0.00,,,0.00,WUHU216HW,2013-09-17 17:19:00,
2013-09-17 13:24:00,65.5,46.4,30.38,NNE,23,0.9,2.2,50,0.00,,,0.00,WUHU216HW,2013-09-17 17:24:00,
2013-09-17 13:29:00,66.2,45.4,30.37,WSW,248,1.1,1.6,47,0.00,,,0.00,WUHU216HW,2013-09-17 17:29:00,
2013-09-17 13:34:00,66.6,45.7,30.37,ENE,68,1.6,1.6,47,0.00,,,0.00,WUHU216HW,2013-09-17 17:34:00,
2013-09-17 13:39:00,66.1,45.2,30.37,East,90,1.1,1.6,47,0.00,,,0.00,WUHU216HW,2013-09-17 17:39:00,
2013-09-17 13:44:00,66.2,44.8,30.36,SE,135,2.5,2.5,46,0.00,,,0.00,WUHU216HW,2013-09-17 17:44:00,
2013-09-17 13:49:00,66.1,45.2,30.36,SSE,158,1.1,2.5,47,0.00,,,0.00,WUHU216HW,2013-09-17 17:49:00,
2013-09-17 13:54:00,66.4,46.2,30.36,SSE,158,1.6,2.5,48,0.00,,,0.00,WUHU216HW,2013-09-17 17:54:00,
2013-09-17 13:59:00,66.6,45.1,30.36,SSE,158,0.9,2.2,46,0.00,,,0.00,WUHU216HW,2013-09-17 17:59:00,
2013-09-17 14:04:00,66.8,45.9,30.35,South,180,0.0,2.2,47,0.00,,,0.00,WUHU216HW,2013-09-17 18:04:00,
2013-09-17 14:09:00,67.3,46.4,30.35,SE,135,1.3,1.6,47,0.00,,,0.00,WUHU216HW,2013-09-17 18:09:00,
2013-09-17 14:14:00,67.3,45.7,30.35,WSW,248,1.8,2.7,46,0.00,,,0.00,WUHU216HW,2013-09-17 18:14:00,
2013-09-17 14:20:00,67.7,46.7,30.35,SW,225,1.8,2.7,47,0.00,,,0.00,WUHU216HW,2013-09-17 18:20:00,
2013-09-17 14:25:00,68.0,46.5,30.34,WSW,248,1.3,3.4,46,0.00,,,0.00,WUHU216HW,2013-09-17 18:25:00,
2013-09-17 14:30:00,68.2,46.5,30.34,SW,225,1.3,3.4,46,0.00,,,0.00,WUHU216HW,2013-09-17 18:30:00,
2013-09-17 14:35:00,68.4,45.5,30.34,SW,225,1.1,1.6,44,0.00,,,0.00,WUHU216HW,2013-09-17 18:35:00,
2013-09-17 14:40:00,68.6,46.3,30.34,SSW,203,1.1,1.3,45,0.00,,,0.00,WUHU216HW,2013-09-17 18:40:00,
2013-09-17 14:45:00,68.8,45.9,30.34,WSW,248,1.6,1.6,44,0.00,,,0.00,WUHU216HW,2013-09-17 18:45:00,
2013-09-17 14:50:00,68.8,45.9,30.33,SE,135,0.2,1.6,44,0.00,,,0.00,WUHU216HW,2013-09-17 18:50:00,
2013-09-17 14:55:00,68.8,45.9,30.33,WSW,248,0.2,1.6,44,0.00,,,0.00,WUHU216HW,2013-09-17 18:55:00,
2013-09-17 15:00:00,68.6,45.1,30.33,East,90,0.7,2.5,43,0.00,,,0.00,WUHU216HW,2013-09-17 19:00:00,
2013-09-17 15:05:00,68.6,45.1,30.33,East,90,0.9,2.5,43,0.00,,,0.00,WUHU216HW,2013-09-17 19:05:00,
2013-09-17 15:10:00,68.0,44.7,30.32,East,90,0.4,1.8,43,0.00,,,0.00,WUHU216HW,2013-09-17 19:10:00,
2013-09-17 15:16:00,68.4,44.9,30.32,SSE,158,0.4,1.8,43,0.00,,,0.00,WUHU216HW,2013-09-17 19:16:00,
2013-09-17 15:21:00,68.4,45.5,30.32,WSW,248,0.4,1.1,44,0.00,,,0.00,WUHU216HW,2013-09-17 19:21:00,
2013-09-17 15:26:00,69.3,46.4,30.31,SW,225,0.7,0.7,44,0.00,,,0.00,WUHU216HW,2013-09-17 19:26:00,
2013-09-17 15:31:00,69.5,44.7,30.31,South,180,1.8,2.2,41,0.00,,,0.00,WUHU216HW,2013-09-17 19:31:00,
2013-09-17 15:36:00,69.5,45.9,30.31,WNW,293,0.2,2.2,43,0.00,,,0.00,WUHU216HW,2013-09-17 19:36:00,
2013-09-17 15:41:00,69.8,45.6,30.31,SW,225,3.1,3.1,42,0.00,,,0.00,WUHU216HW,2013-09-17 19:41:00,
2013-09-17 15:46:00,70.2,46.5,30.31,WSW,248,1.6,3.1,43,0.00,,,0.00,WUHU216HW,2013-09-17 19:46:00,
2013-09-17 15:51:00,72.0,47.6,30.30,WSW,248,0.0,2.2,42,0.00,,,0.00,WUHU216HW,2013-09-17 19:51:00,
2013-09-17 15:56:00,72.9,47.3,30.30,SE,135,0.9,2.2,40,0.00,,,0.00,WUHU216HW,2013-09-17 19:56:00,
2013-09-17 16:01:00,73.4,45.5,30.30,SSW,203,1.6,2.9,37,0.00,,,0.00,WUHU216HW,2013-09-17 20:01:00,
2013-09-17 16:06:00,73.4,46.2,30.30,SE,135,1.8,2.9,38,0.00,,,0.00,WUHU216HW,2013-09-17 20:06:00,
2013-09-17 16:11:00,74.2,46.1,30.30,SE,135,1.1,1.8,37,0.00,,,0.00,WUHU216HW,2013-09-17 20:11:00,
2013-09-17 16:16:00,74.2,46.1,30.30,SSW,203,1.3,1.8,37,0.00,,,0.00,WUHU216HW,2013-09-17 20:16:00,
2013-09-17 16:22:00,74.5,46.5,30.30,NNW,338,1.1,2.2,37,0.00,,,0.00,WUHU216HW,2013-09-17 20:22:00,
2013-09-17 16:27:00,74.9,46.7,30.30,ENE,68,0.4,2.2,37,0.00,,,0.00,WUHU216HW,2013-09-17 20:27:00,
2013-09-17 16:32:00,74.7,45.8,30.30,SW,225,1.1,2.0,36,0.00,,,0.00,WUHU216HW,2013-09-17 20:32:00,
2013-09-17 16:37:00,74.7,45.1,30.30,SE,135,1.8,2.0,35,0.00,,,0.00,WUHU216HW,2013-09-17 20:37:00,
2013-09-17 16:42:00,72.9,43.5,30.30,SW,225,0.9,2.5,35,0.00,,,0.00,WUHU216HW,2013-09-17 20:42:00,
2013-09-17 16:47:00,72.2,42.8,30.29,WSW,248,0.0,2.5,35,0.00,,,0.00,WUHU216HW,2013-09-17 20:47:00,
2013-09-17 16:52:00,71.5,43.8,30.29,SE,135,0.7,1.1,37,0.00,,,0.00,WUHU216HW,2013-09-17 20:52:00,
2013-09-17 16:57:00,71.3,43.6,30.29,WSW,248,0.0,1.3,37,0.00,,,0.00,WUHU216HW,2013-09-17 20:57:00,
2013-09-17 17:02:00,71.3,42.9,30.29,WSW,248,0.9,2.0,36,0.00,,,0.00,WUHU216HW,2013-09-17 21:02:00,
2013-09-17 17:07:00,71.1,43.4,30.29,WSW,248,0.0,2.0,37,0.00,,,0.00,WUHU216HW,2013-09-17 21:07:00,
2013-09-17 17:12:00,70.9,43.2,30.29,South,180,1.1,1.1,37,0.00,,,0.00,WUHU216HW,2013-09-17 21:12:00,
2013-09-17 17:18:00,70.6,42.9,30.29,NE,45,0.9,1.3,37,0.00,,,0.00,WUHU216HW,2013-09-17 21:18:00,
2013-09-17 17:23:00,70.2,42.6,30.29,NNE,23,0.0,1.3,37,0.00,,,0.00,WUHU216HW,2013-09-17 21:23:00,
2013-09-17 17:28:00,70.2,42.6,30.29,SE,135,0.4,1.1,37,0.00,,,0.00,WUHU216HW,2013-09-17 21:28:00,
2013-09-17 17:33:00,69.5,42.0,30.29,East,90,0.4,1.6,37,0.00,,,0.00,WUHU216HW,2013-09-17 21:33:00,
2013-09-17 17:38:00,69.1,42.3,30.29,SSE,158,0.2,1.6,38,0.00,,,0.00,WUHU216HW,2013-09-17 21:38:00,
2013-09-17 17:43:00,69.1,42.3,30.29,SW,225,0.2,0.9,38,0.00,,,0.00,WUHU216HW,2013-09-17 21:43:00,
2013-09-17 17:48:00,68.8,42.0,30.29,SW,225,0.9,1.1,38,0.00,,,0.00,WUHU216HW,2013-09-17 21:48:00,
2013-09-17 17:53:00,68.6,41.9,30.29,SW,225,0.4,1.1,38,0.00,,,0.00,WUHU216HW,2013-09-17 21:53:00,
2013-09-17 17:58:00,68.4,42.4,30.29,South,180,0.0,0.4,39,0.00,,,0.00,WUHU216HW,2013-09-17 21:58:00,
2013-09-17 18:03:00,68.0,42.8,30.29,NE,45,0.0,0.9,40,0.00,,,0.00,WUHU216HW,2013-09-17 22:03:00,
2013-09-17 18:08:00,67.9,41.9,30.29,SW,225,0.4,1.6,39,0.00,,,0.00,WUHU216HW,2013-09-17 22:08:00,
2013-09-17 18:13:00,67.5,41.6,30.29,WSW,248,0.0,1.6,39,0.00,,,0.00,WUHU216HW,2013-09-17 22:13:00,
2013-09-17 18:19:00,67.0,41.1,30.29,WNW,293,0.9,3.1,39,0.00,,,0.00,WUHU216HW,2013-09-17 22:19:00,
2013-09-17 18:24:00,66.6,41.6,30.30,WSW,248,0.9,3.1,40,0.00,,,0.00,WUHU216HW,2013-09-17 22:24:00,
2013-09-17 18:29:00,66.4,41.9,30.30,WSW,248,0.0,1.1,41,0.00,,,0.00,WUHU216HW,2013-09-17 22:29:00,
2013-09-17 18:34:00,65.9,42.1,30.29,West,270,0.2,0.9,42,0.00,,,0.00,WUHU216HW,2013-09-17 22:34:00,
2013-09-17 18:39:00,65.7,42.5,30.29,West,270,0.0,0.9,43,0.00,,,0.00,WUHU216HW,2013-09-17 22:39:00,
2013-09-17 18:44:00,65.2,42.0,30.30,SSW,203,0.7,0.7,43,0.00,,,0.00,WUHU216HW,2013-09-17 22:44:00,
2013-09-17 18:49:00,64.8,42.2,30.30,West,270,0.0,0.7,44,0.00,,,0.00,WUHU216HW,2013-09-17 22:49:00,
2013-09-17 18:54:00,64.4,42.0,30.29,WSW,248,0.4,0.7,44,0.00,,,0.00,WUHU216HW,2013-09-17 22:54:00,
2013-09-17 19:00:00,64.1,41.6,30.30,WSW,248,0.0,0.4,44,0.00,,,0.00,WUHU216HW,2013-09-17 23:00:00,
2013-09-17 19:05:00,63.5,41.7,30.30,WSW,248,0.2,1.8,45,0.00,,,0.00,WUHU216HW,2013-09-17 23:05:00,
2013-09-17 19:10:00,63.2,41.3,30.30,WSW,248,2.5,2.5,45,0.00,,,0.00,WUHU216HW,2013-09-17 23:10:00,
2013-09-17 19:15:00,63.0,41.8,30.30,WSW,248,0.2,2.5,46,0.00,,,0.00,WUHU216HW,2013-09-17 23:15:00,
2013-09-17 19:20:00,62.8,41.6,30.30,WSW,248,0.0,1.1,46,0.00,,,0.00,WUHU216HW,2013-09-17 23:20:00,
2013-09-17 19:25:00,62.5,41.9,30.30,WNW,293,0.0,0.4,47,0.00,,,0.00,WUHU216HW,2013-09-17 23:25:00,
2013-09-17 19:30:00,62.3,41.7,30.30,West,270,0.0,0.0,47,0.00,,,0.00,WUHU216HW,2013-09-17 23:30:00,
2013-09-17 19:36:00,61.7,41.2,30.30,WSW,248,0.0,0.0,47,0.00,,,0.00,WUHU216HW,2013-09-17 23:36:00,
2013-09-17 19:40:00,61.6,41.6,30.30,NNW,338,0.0,0.0,48,0.00,,,0.00,WUHU216HW,2013-09-17 23:40:00,
2013-09-17 19:46:00,61.2,41.3,30.30,NW,315,0.0,0.0,48,0.00,,,0.00,WUHU216HW,2013-09-17 23:46:00,
2013-09-17 19:51:00,60.7,41.4,30.30,WSW,248,0.0,0.4,49,0.00,,,0.00,WUHU216HW,2013-09-17 23:51:00,
2013-09-17 19:56:00,60.5,41.2,30.31,WSW,248,0.0,0.4,49,0.00,,,0.00,WUHU216HW,2013-09-17 23:56:00,
2013-09-17 20:01:00,60.3,41.0,30.31,WSW,248,0.0,0.0,49,0.00,,,0.00,WUHU216HW,2013-09-18 00:01:00,
2013-09-17 20:06:00,60.1,40.9,30.31,WSW,248,0.0,0.0,49,0.00,,,0.00,WUHU216HW,2013-09-18 00:06:00,
2013-09-17 20:11:00,59.6,41.0,30.31,West,270,0.0,0.0,50,0.00,,,0.00,WUHU216HW,2013-09-18 00:11:00,
2013-09-17 20:16:00,59.2,40.7,30.31,West,270,0.0,0.0,50,0.00,,,0.00,WUHU216HW,2013-09-18 00:16:00,
2013-09-17 20:22:00,58.9,40.3,30.31,West,270,0.0,0.0,50,0.00,,,0.00,WUHU216HW,2013-09-18 00:22:00,
2013-09-17 20:27:00,58.7,40.7,30.31,West,270,0.0,0.0,51,0.00,,,0.00,WUHU216HW,2013-09-18 00:27:00,
2013-09-17 20:32:00,58.3,40.8,30.31,NNW,338,0.0,0.0,52,0.00,,,0.00,WUHU216HW,2013-09-18 00:32:00,
2013-09-17 20:37:00,58.1,40.6,30.30,West,270,0.0,0.0,52,0.00,,,0.00,WUHU216HW,2013-09-18 00:37:00,
2013-09-17 20:42:00,58.0,40.5,30.31,West,270,0.0,0.0,52,0.00,,,0.00,WUHU216HW,2013-09-18 00:42:00,
2013-09-17 20:47:00,58.0,41.0,30.31,WNW,293,0.0,0.2,53,0.00,,,0.00,WUHU216HW,2013-09-18 00:47:00,
2013-09-17 20:52:00,57.8,40.8,30.31,WNW,293,0.0,0.2,53,0.00,,,0.00,WUHU216HW,2013-09-18 00:52:00,
2013-09-17 20:57:00,57.6,40.6,30.31,WNW,293,0.0,0.0,53,0.00,,,0.00,WUHU216HW,2013-09-18 00:57:00,
2013-09-17 21:02:00,57.4,41.0,30.31,WNW,293,0.0,0.0,54,0.00,,,0.00,WUHU216HW,2013-09-18 01:02:00,
2013-09-17 21:07:00,57.4,41.0,30.31,WNW,293,0.0,0.0,54,0.00,,,0.00,WUHU216HW,2013-09-18 01:07:00,
2013-09-17 21:31:00,56.3,40.8,30.32,North,0,0.0,0.0,56,0.00,,,0.00,WUHU216HW,2013-09-18 01:31:00,
2013-09-17 21:36:00,56.2,40.6,30.32,North,0,0.0,0.4,56,0.00,,,0.00,WUHU216HW,2013-09-18 01:36:00,
2013-09-17 21:41:00,56.2,40.6,30.32,North,0,0.0,0.4,56,0.00,,,0.00,WUHU216HW,2013-09-18 01:41:00,
2013-09-17 22:00:00,55.4,41.3,30.32,North,0,0.0,0.0,59,0.00,,,0.00,WUHU216HW,2013-09-18 02:00:00,
2013-09-17 22:05:00,55.3,41.1,30.32,North,0,0.0,0.0,59,0.00,,,0.00,WUHU216HW,2013-09-18 02:05:00,
2013-09-17 22:10:00,55.1,41.4,30.32,North,0,0.0,0.0,60,0.00,,,0.00,WUHU216HW,2013-09-18 02:10:00,
2013-09-17 22:15:00,54.9,41.3,30.32,North,0,0.0,0.0,60,0.00,,,0.00,WUHU216HW,2013-09-18 02:15:00,
2013-09-17 22:20:00,54.7,41.5,30.32,North,0,0.0,0.0,61,0.00,,,0.00,WUHU216HW,2013-09-18 02:20:00,
2013-09-17 22:25:00,54.7,41.5,30.32,North,0,0.0,0.0,61,0.00,,,0.00,WUHU216HW,2013-09-18 02:25:00,
2013-09-17 22:30:00,54.7,41.5,30.32,North,0,0.0,0.0,61,0.00,,,0.00,WUHU216HW,2013-09-18 02:30:00,
2013-09-17 22:51:00,54.0,42.0,30.32,North,0,0.0,0.0,64,0.00,,,0.00,WUHU216HW,2013-09-18 02:51:00,
2013-09-17 22:56:00,53.8,41.9,30.32,North,0,0.0,0.0,64,0.00,,,0.00,WUHU216HW,2013-09-18 02:56:00,
2013-09-17 23:01:00,53.8,41.9,30.32,North,0,0.0,0.0,64,0.00,,,0.00,WUHU216HW,2013-09-18 03:01:00,
2013-09-17 23:06:00,53.6,41.8,30.32,North,0,0.0,0.0,64,0.00,,,0.00,WUHU216HW,2013-09-18 03:06:00,
2013-09-17 23:12:00,53.6,41.8,30.32,North,0,0.0,0.0,64,0.00,,,0.00,WUHU216HW,2013-09-18 03:12:00,
2013-09-17 23:17:00,53.3,41.8,30.32,North,0,0.0,0.0,65,0.00,,,0.00,WUHU216HW,2013-09-18 03:17:00,
2013-09-17 23:22:00,53.3,41.8,30.32,North,0,0.0,0.0,65,0.00,,,0.00,WUHU216HW,2013-09-18 03:22:00,
2013-09-17 23:27:00,53.3,42.2,30.32,North,0,0.0,0.0,66,0.00,,,0.00,WUHU216HW,2013-09-18 03:27:00,
2013-09-17 23:32:00,53.3,42.2,30.32,North,0,0.0,0.4,66,0.00,,,0.00,WUHU216HW,2013-09-18 03:32:00,
2013-09-17 23:37:00,53.3,42.6,30.32,North,0,0.0,0.2,67,0.00,,,0.00,WUHU216HW,2013-09-18 03:37:00,
2013-09-17 23:42:00,53.1,42.4,30.32,North,0,0.0,0.0,67,0.00,,,0.00,WUHU216HW,2013-09-18 03:42:00,
2013-09-17 23:47:00,53.1,42.4,30.32,North,0,0.0,0.0,67,0.00,,,0.00,WUHU216HW,2013-09-18 03:47:00,
2013-09-17 23:52:00,53.1,42.9,30.32,WSW,248,0.9,0.9,68,0.00,,,0.00,WUHU216HW,2013-09-18 03:52:00,
2013-09-17 23:58:00,53.3,43.0,30.32,NW,315,0.0,0.9,68,0.00,,,0.00,WUHU216HW,2013-09-18 03:58:00,